Flag for Spain Weather past 2 weeks in Santa Cruz de Tenerife, Canary Islands, Spain

66 °F

Passing clouds.

Feels Like: 66 °F
Forecast: 67 / 78 °F
Wind: 14 mph from Northeast

Location: Tenerife Sur

Current Time: Dec 2, 2015 at 5:59:54 AM

Latest Report: Dec 2, 2015 at 5:00 AM

Visibility: N/A

Pressure: 30.24 "Hg

Humidity: 64%

Dew point: 54 °F

Location of Santa Cruz de TenerifeLocation

Historic Weather in Santa Cruz de Tenerife — Graph


Santa Cruz de Tenerife temperature yesterday

Maximum temperature yesterday: 75 °F (at 9:00 AM)
Minimum temperature yesterday: 68 °F (at 10:00 PM)
Average temperature yesterday: 72 °F

Past Weeks' High & Low Weather Summary

High82 °F (Nov 19, 1:30 PM)83% (Nov 29, 9:00 PM)30.36 "Hg (Nov 29, 9:00 PM)
Low63 °F (Nov 27, 4:30 AM)18% (Nov 30, 1:00 PM)30.04 "Hg (Nov 22, 5:30 PM)
Average71 °F56%30.21 "Hg
* Reported Nov 17 3:00 AM — Dec 2 3:30 AM, Santa Cruz de Tenerife, Weather by CustomWeather, © 2015

Note: Actual official high and low records may vary slightly from our data, if they occured in-between our weather recording intervals... More about our weather records


Santa Cruz de Tenerife weather history for previous 24 hours

Time TempWeatherWind HumidityBarometerVisibility
3:30 AM
Wed, Dec 2
68 °FPassing clouds.9 mph64%30.27 "HgN/A
2:30 AM68 °FPassing clouds.10 mph53%30.27 "HgN/A
2:00 AM70 °FPassing clouds.3 mph50%30.30 "HgN/A
1:30 AM70 °FPassing clouds.6 mph50%30.30 "HgN/A
1:00 AM70 °FPassing clouds.7 mph64%30.30 "HgN/A
12:30 AM68 °FPassing clouds.3 mph60%30.30 "HgN/A
12:00 AM68 °FPassing clouds.3 mph64%30.33 "HgN/A
11:30 PM
Tue, Dec 1
68 °FPassing clouds.6 mph69%30.30 "HgN/A
11:00 PM70 °FPassing clouds.3 mph64%30.33 "HgN/A
10:00 PM68 °FPassing clouds.6 mph69%30.33 "HgN/A
9:30 PM70 °FPassing clouds.7 mph64%30.30 "HgN/A
9:00 PM70 °FPassing clouds.6 mph64%30.33 "HgN/A
8:30 PM70 °FPassing clouds.5 mph69%30.33 "HgN/A
8:00 PM70 °FPassing clouds.3 mph69%30.33 "HgN/A
7:30 PM70 °FPassing clouds.9 mph69%30.30 "HgN/A
7:00 PM70 °FPassing clouds.8 mph73%30.30 "HgN/A
6:30 PM70 °FPassing clouds.5 mph69%30.30 "HgN/A
6:00 PM70 °FScattered clouds.3 mph73%30.30 "HgN/A
5:30 PM72 °FScattered clouds.8 mph69%30.27 "HgN/A
5:00 PM72 °FScattered clouds.6 mph65%30.30 "HgN/A
4:30 PM72 °FHeavy rain. Partly sunny.3 mph69%30.30 "HgN/A
4:00 PM72 °FPartly sunny.3 mph65%30.27 "HgN/A
3:30 PM73 °FPartly sunny.2 mph61%30.30 "HgN/A
3:00 PM73 °FScattered clouds.2 mph57%30.30 "HgN/A
2:30 PM75 °FScattered clouds.1 mph54%30.30 "HgN/A
2:00 PM73 °FScattered clouds.5 mph57%30.30 "HgN/A
1:30 PM75 °FScattered clouds.6 mph50%30.30 "HgN/A
1:00 PM75 °FScattered clouds.9 mph50%30.30 "HgN/A
12:30 PM75 °FPartly sunny.10 mph47%30.33 "HgN/A
12:00 PM75 °FPassing clouds.9 mph47%30.33 "HgN/A
11:30 AM75 °FPassing clouds.9 mph50%30.33 "HgN/A
11:00 AM75 °FScattered clouds.12 mph50%30.33 "HgN/A
10:30 AM75 °FScattered clouds.10 mph50%30.33 "HgN/A
10:00 AM75 °FPassing clouds.12 mph47%30.33 "HgN/A
9:30 AM75 °FPassing clouds.9 mph44%30.33 "HgN/A
9:00 AM75 °FPassing clouds.10 mph36%30.33 "HgN/A
8:00 AM72 °FPassing clouds.10 mph27%30.30 "HgN/A
7:30 AM70 °FPassing clouds.9 mph27%30.30 "HgN/A
7:00 AM72 °FPassing clouds.10 mph23%30.30 "HgN/A
6:30 AM72 °FPassing clouds.8 mph22%30.27 "HgN/A
6:00 AM72 °FPassing clouds.8 mph22%30.27 "HgN/A
5:30 AM72 °FPassing clouds.8 mph22%30.27 "HgN/A
5:00 AM72 °FPassing clouds.7 mph22%30.27 "HgN/A
Weather by CustomWeather, © 2015

See weather overviewHow to use our weather pages